Madisonville, KY

11:28 PM CST on December 09, 2019 (GMT -0600)
Madisonville

Weather History for K2I0 - October, 2019

Change the Weather History Date:

Monday, October 7, 2019

  Actual Average (KOWB) Record (KOWB)
Temperature  
Mean Temperature 61 °F -  
Max Temperature 72 °F 71 °F 91 °F (2018)
Min Temperature 50 °F 46 °F 29 °F (1952)
Degree Days  
Heating Degree Days 4    
Growing Degree Days 11 (Base 50)    
Moisture  
Dew Point 53 °F    
Average Humidity 79    
Maximum Humidity 100    
Minimum Humidity 42    
Precipitation  
Precipitation 0.40 in - - ()
Sea Level Pressure  
Sea Level Pressure 30.19 in    
Wind  
Wind Speed 5 mph ()    
Max Wind Speed 10 mph    
Max Gust Speed -    
Visibility 9.2 miles    
Events Rain    
Averages and records for this station are not official NWS values.
T = Trace of Precipitation, MM = Missing Value Source: Averaged Metar Reports

Daily Weather History Graph

Daily Weather History Graph

Search for Another Location

Airport or City:

Astronomy

Oct. 07, 2019 Rise Set
Actual Time 6:50 AM CDT 6:24 PM CDT
Civil Twilight 6:24 AM CDT 6:50 PM CDT
Nautical Twilight 5:53 AM CDT 7:20 PM CDT
Astronomical Twilight 5:23 AM CDT 7:50 PM CDT
Moon 3:37 PM CDT (10/7) 12:51 AM CDT (10/7)
Length of Visible Light 12h 26m
Length of Day
11h 34m
Waxing Gibbous, 69% of the Moon is Illuminated
Oct 7
Waxing Gibbous
Oct 13
Full
Oct 21
Last Quarter
Oct 27
New
Nov 4
First Quarter

Hourly Weather History & Observations

Time (CDT) Temp. Dew Point Humidity Pressure Visibility Wind Dir Wind Speed Gust Speed Precip Events Conditions
12:15 AM 59.9 °F 54.7 °F 83% 30.16 in 10.0 mi Calm Calm - N/A   Overcast
12:35 AM 59.9 °F 55.4 °F 85% 30.16 in 10.0 mi NE 3.5 mph - N/A   Overcast
1:15 AM 60.8 °F 55.9 °F 84% 30.16 in 10.0 mi ESE 9.2 mph - N/A Rain Light Rain
1:35 AM 59.4 °F 54.5 °F 84% 30.17 in 7.0 mi ESE 9.2 mph - 0.06 in Rain Rain
1:55 AM 58.6 °F 54.5 °F 86% 30.17 in 7.0 mi ENE 6.9 mph - 0.12 in Rain Rain
2:15 AM 57.4 °F 55.0 °F 92% 30.16 in 10.0 mi NE 8.1 mph - 0.03 in Rain Rain
2:35 AM 57.2 °F 55.8 °F 95% 30.14 in 7.0 mi NE 8.1 mph - 0.12 in Rain Rain
2:55 AM 57.2 °F 57.2 °F 100% 30.14 in 10.0 mi NNE 5.8 mph - 0.13 in Rain Rain
3:15 AM 57.6 °F 57.6 °F 100% 30.14 in 7.0 mi NNE 9.2 mph - 0.04 in Rain Heavy Rain
3:35 AM 57.6 °F 57.6 °F 100% 30.14 in 10.0 mi NNE 10.4 mph - 0.07 in Rain Light Rain
3:55 AM 57.7 °F 57.7 °F 100% 30.14 in 10.0 mi NE 9.2 mph - 0.09 in   Drizzle
4:15 AM 57.6 °F 57.6 °F 100% 30.14 in 10.0 mi ENE 8.1 mph - N/A   Overcast
4:35 AM 57.6 °F 57.6 °F 100% 30.14 in 10.0 mi NNE 9.2 mph - N/A Rain Rain
4:55 AM 57.6 °F 57.6 °F 100% 30.16 in 10.0 mi North 8.1 mph - N/A Rain Light Rain
5:15 AM 57.6 °F 57.6 °F 100% 30.16 in 10.0 mi NNE 10.4 mph - N/A   Overcast
5:35 AM 57.6 °F 55.8 °F 94% 30.17 in 10.0 mi NNE 9.2 mph - N/A   Overcast
5:55 AM 57.2 °F 55.4 °F 94% 30.18 in 10.0 mi ENE 6.9 mph - N/A Rain Rain
6:15 AM 56.8 °F 54.9 °F 93% 30.18 in 10.0 mi NE 5.8 mph - N/A   Drizzle
6:35 AM 56.5 °F 54.5 °F 93% 30.19 in 10.0 mi NE 5.8 mph - 0.01 in Rain Rain
6:55 AM 56.3 °F 54.9 °F 95% 30.20 in 7.0 mi NNE 4.6 mph - 0.06 in Rain Rain
7:15 AM 56.3 °F 56.3 °F 100% 30.19 in 10.0 mi NE 8.1 mph - N/A Rain Light Rain
7:35 AM 56.3 °F 56.3 °F 100% 30.19 in 10.0 mi NE 5.8 mph - N/A   Light Drizzle
7:55 AM 56.5 °F 56.5 °F 100% 30.20 in 10.0 mi NE 4.6 mph - N/A Rain Light Rain
8:15 AM 56.8 °F 56.8 °F 100% 30.21 in 10.0 mi NE 4.6 mph - N/A   Mostly Cloudy
8:35 AM 57.2 °F 57.2 °F 100% 30.21 in 10.0 mi NE 4.6 mph - N/A   Mostly Cloudy
8:55 AM 57.4 °F 57.4 °F 100% 30.22 in 10.0 mi NNE 3.5 mph - N/A Rain Light Rain
9:15 AM 57.6 °F 55.9 °F 94% 30.21 in 10.0 mi ENE 5.8 mph - N/A   Overcast
9:35 AM 57.6 °F 55.4 °F 92% 30.22 in 10.0 mi NE 5.8 mph - N/A   Overcast
9:55 AM 58.1 °F 55.4 °F 91% 30.23 in 10.0 mi NE 6.9 mph - N/A   Mostly Cloudy
10:15 AM 59.5 °F 55.2 °F 86% 30.23 in 10.0 mi NE 6.9 mph - N/A Rain Light Rain
10:35 AM 60.4 °F 55.6 °F 84% 30.24 in 10.0 mi East 4.6 mph - N/A   Clear
10:55 AM 61.0 °F 55.4 °F 82% 30.24 in 10.0 mi ENE 5.8 mph - N/A   Scattered Clouds
11:15 AM 61.7 °F 55.4 °F 80% 30.24 in 10.0 mi Calm Calm - N/A   Scattered Clouds
11:35 AM 62.4 °F 54.7 °F 76% 30.24 in 10.0 mi Calm Calm - N/A   Scattered Clouds
11:55 AM 63.1 °F 55.0 °F 75% 30.24 in 10.0 mi East 5.8 mph - N/A   Scattered Clouds
12:15 PM 65.3 °F 55.0 °F 69% 30.24 in 10.0 mi NE 3.5 mph - N/A   Scattered Clouds
12:35 PM 65.8 °F 54.3 °F 66% 30.23 in 10.0 mi ESE 3.5 mph - N/A   Scattered Clouds
12:55 PM 66.6 °F 53.6 °F 63% 30.23 in 10.0 mi SE 3.5 mph - N/A   Clear
1:15 PM 68.5 °F 51.8 °F 55% 30.22 in 10.0 mi ENE 6.9 mph - N/A   Clear
1:35 PM 68.0 °F 50.9 °F 54% 30.21 in 10.0 mi East 10.4 mph - N/A   Clear
1:55 PM 68.7 °F 51.4 °F 54% 30.21 in 10.0 mi ENE 6.9 mph - N/A   Clear
2:15 PM 68.5 °F 52.0 °F 55% 30.20 in 10.0 mi East 6.9 mph - N/A   Scattered Clouds
2:35 PM 69.1 °F 51.1 °F 53% 30.19 in 10.0 mi ENE 8.1 mph - N/A   Scattered Clouds
2:55 PM 70.0 °F 50.5 °F 50% 30.19 in 10.0 mi NNE 8.1 mph - N/A   Scattered Clouds
3:15 PM 70.3 °F 49.5 °F 47% 30.19 in 10.0 mi NE 8.1 mph - N/A   Scattered Clouds
3:35 PM 71.4 °F 49.1 °F 45% 30.18 in 10.0 mi NE 5.8 mph - N/A   Clear
3:55 PM 71.4 °F 48.0 °F 43% 30.18 in 10.0 mi East 9.2 mph - N/A   Clear
4:15 PM 71.4 °F 48.2 °F 44% 30.18 in 10.0 mi NE 6.9 mph - N/A   Clear
4:35 PM 71.1 °F 47.7 °F 43% 30.18 in 10.0 mi ENE 8.1 mph - N/A   Clear
4:55 PM 70.9 °F 46.8 °F 42% 30.18 in 10.0 mi NE 5.8 mph - N/A   Clear
5:15 PM 70.7 °F 47.5 °F 44% 30.18 in 10.0 mi NE 6.9 mph - N/A   Clear
5:35 PM 69.8 °F 46.9 °F 44% 30.17 in 10.0 mi ENE 6.9 mph - N/A   Clear
5:55 PM 68.4 °F 47.8 °F 48% 30.17 in 10.0 mi ENE 5.8 mph - N/A   Clear
6:15 PM 65.8 °F 48.2 °F 53% 30.18 in 10.0 mi East 4.6 mph - N/A   Clear
6:35 PM 62.6 °F 49.3 °F 62% 30.18 in 10.0 mi Calm Calm - N/A   Clear
6:55 PM 63.1 °F 49.6 °F 61% 30.18 in 7.0 mi Calm Calm - N/A   Clear
7:15 PM 59.9 °F 50.0 °F 70% 30.18 in 10.0 mi Calm Calm - N/A   Clear
7:35 PM 59.4 °F 49.6 °F 70% 30.19 in 7.0 mi Calm Calm - N/A   Clear
7:55 PM 58.3 °F 50.0 °F 74% 30.20 in 10.0 mi Calm Calm - N/A   Clear
8:15 PM 58.1 °F 50.4 °F 75% 30.20 in 7.0 mi Calm Calm - N/A   Clear
8:35 PM 56.8 °F 51.1 °F 81% 30.21 in 5.0 mi Calm Calm - N/A   Haze
8:55 PM 55.8 °F 52.0 °F 87% 30.21 in 10.0 mi Calm Calm - N/A   Clear
9:15 PM 55.6 °F 51.8 °F 87% 30.21 in 10.0 mi Calm Calm - N/A   Clear
9:35 PM 55.4 °F 51.8 °F 88% 30.21 in 5.0 mi Calm Calm - N/A   Clear
9:55 PM 53.8 °F 51.1 °F 91% 30.22 in 10.0 mi Calm Calm - N/A   Clear
10:15 PM 52.5 °F 49.6 °F 90% 30.22 in 7.0 mi Calm Calm - N/A   Clear
10:35 PM 53.2 °F 50.7 °F 91% 30.22 in 10.0 mi Calm Calm - N/A   Clear
10:55 PM 52.5 °F 50.5 °F 93% 30.22 in 5.0 mi Calm Calm - N/A   Clear
11:15 PM 51.4 °F 50.7 °F 97% 30.22 in 1.2 mi Calm Calm - N/A   Mist
11:55 PM 50.4 °F 50.4 °F 100% 30.21 in 1.5 mi Calm Calm - N/A   Mist